Regional Weather Roundup
Issued by NWS

Home | Current Version | Previous Version | Graphics & Text | Print | Product List | Glossary On
Versions: 1 2 3 4 5 6 7 8 9 10 11 12 13 14 15 16 17 18 19 20 21 22 23 24 25 26 27
000
ASUS45 KCYS 221410
RWRWY

WYOMING REGIONAL WEATHER ROUNDUP
NATIONAL WEATHER SERVICE CHEYENNE WY
700 AM MST WED NOV 22 2017

NOTE:  "FAIR" INDICATES FEW OR NO CLOUDS BELOW 12,000 FEET
WITH NO SIGNIFICANT WEATHER AND/OR OBSTRUCTIONS TO VISIBILITY.

WYZ001-221500-
YELLOWSTONE NATIONAL PARK

CITY           SKY/WX    TMP DP  RH WIND       PRES   REMARKS
LK YELLOWSTONE   N/A     37  36  96 W6        30.38S WCI  32
W YELLOWSTONE  NOT AVBL

$$
WYZ002>013-054>058-071-098>099-221500-
NORTHERN WYOMING

CITY           SKY/WX    TMP DP  RH WIND       PRES   REMARKS
JACKSON        LGT RAIN  45  40  82 S9        30.35F
CODY           FAIR      56  38  50 W18G35    30.16F
GREYBULL       FAIR      30  28  92 SE5       30.18S WCI  25
WORLAND        FAIR      29  28  96 S8        30.18F WCI  21
SHERIDAN       FAIR      36  31  82 W3        30.03S
BUFFALO        FAIR      52  28  39 S12       30.08S
GILLETTE       FAIR      47  31  53 SW16      30.06R
HULETT         FAIR      43  30  61 SW12      30.05R
NEWCASTLE      FAIR      30  25  80 CALM      30.11S

$$
WYZ014>020-022>026-101>103-221500-
CENTRAL WYOMING

CITY           SKY/WX    TMP DP  RH WIND       PRES   REMARKS
BIG PINEY      LGT RAIN  35  34  96 SW5       30.40F WCI  31
PINEDALE       CLOUDY    34  34 100 CALM      30.42R
DUBOIS         CLOUDY    43  34  70 NW17G30   30.29R
LANDER         FAIR      39  30  70 CALM      30.23R
RIVERTON       FAIR      42  32  67 SW9       30.23R
CASPER         FAIR      46  36  68 SW13      30.22R
DOUGLAS        FAIR      45  37  73 NW12      30.16R

$$
WYZ021-027>030-104>119-221500-
SOUTHERN WYOMING

CITY           SKY/WX    TMP DP  RH WIND       PRES   REMARKS
EVANSTON       FAIR      39  35  86 SW10      30.45S WCI  32
KEMMERER       FAIR      37  34  87 W10       30.44R WCI  30
FORT BRIDGER   FAIR      42  37  82 SW7       30.47R
ROCK SPRINGS   MOCLDY    42  35  76 W20       30.40R
DIXON          PTSUNNY   39  34  81 W6        30.45R WCI  35
RAWLINS        LGT RAIN  43  37  79 W24G33    30.34R
SARATOGA       CLOUDY    43  36  75 SW6       30.40R
LARAMIE        FAIR      40  34  79 SW14      30.30R WCI  32
CHEYENNE       FAIR      49  35  58 W16G22    30.22R
TORRINGTON     FAIR      29  26  89 SE5       30.13S WCI  24
PINE BLUFFS    FAIR      32  32 100 MISG      30.21S

$$




USA.gov is the U.S. government's official web portal to all federal, state and local government web resources and services.